When you browse on this site, cookies collect data to enhance your experience and personalize the content and advertising you see.
Visit our Privacy Policy to learn more. By continuing to use the site, you agree to this use of cookies and data.
  • In Austria
  • List of Countries
  • For 7 days
  • Water Temperature
  • Weather Map
  • News
  • Weather Widgets
  • user-avatar
    Login

    Hourly Weather Santa Cruz

    Today, 18 October, Friday

    Time Temperature Precipitation Wind Pressure Humidity
    00:00 +25°C° 0 mm 2 mps 722 mmHg 65%
    01:00 +25°C° 0 mm 2 mps 722 mmHg 67%
    02:00 +25°C° 0 mm 2 mps 722 mmHg 69%
    03:00 +24°C° 0 mm 2 mps 722 mmHg 70%
    04:00 +24°C° 0 mm 2 mps 722 mmHg 70%
    05:00 +24°C° 0 mm 2 mps 723 mmHg 71%
    06:00 +25°C° 0 mm 2 mps 723 mmHg 62%
    07:00 +26°C° 0 mm 3 mps 724 mmHg 53%
    08:00 +27°C° 0 mm 4 mps 725 mmHg 44%
    09:00 +29°C° 0 mm 3 mps 725 mmHg 40%
    10:00 +33°C° 0 mm 3 mps 725 mmHg 36%
    11:00 +35°C° 0 mm 2 mps 725 mmHg 33%
    12:00 +37°C° 0 mm 2 mps 724 mmHg 31%
    13:00 +37°C° 0 mm 1 mps 724 mmHg 29%
    14:00 +40°C° 0 mm 1 mps 723 mmHg 27%
    15:00 +37°C° 0 mm 1 mps 722 mmHg 30%
    16:00 +36°C° 0 mm 1 mps 722 mmHg 32%
    17:00 +35°C° 0 mm 1 mps 721 mmHg 35%
    18:00 +33°C° 0.2 mm 1 mps 722 mmHg 42%
    19:00 +31°C° 0.2 mm 1 mps 722 mmHg 49%
    20:00 +29°C° 0.2 mm 1 mps 723 mmHg 56%
    21:00 +28°C° 0.1 mm 2 mps 723 mmHg 54%
    22:00 +28°C° 0.1 mm 3 mps 724 mmHg 52%
    23:00 +27°C° 0.1 mm 5 mps 724 mmHg 50%

    Tomorrow, 19 October, Saturday

    Time Temperature Precipitation Wind Pressure Humidity
    00:00 +26°C° 0 mm 5 mps 724 mmHg 51%
    01:00 +25°C° 0 mm 5 mps 724 mmHg 52%
    02:00 +23°C° 0 mm 5 mps 724 mmHg 53%
    03:00 +22°C° 0 mm 5 mps 724 mmHg 53%
    04:00 +22°C° 0 mm 5 mps 724 mmHg 53%
    05:00 +22°C° 0 mm 5 mps 725 mmHg 53%
    06:00 +23°C° 0.2 mm 5 mps 726 mmHg 52%
    07:00 +23°C° 0.2 mm 6 mps 726 mmHg 51%
    08:00 +24°C° 0.2 mm 6 mps 727 mmHg 51%
    09:00 +26°C° 0.3 mm 6 mps 727 mmHg 47%
    10:00 +28°C° 0.3 mm 6 mps 727 mmHg 43%
    11:00 +29°C° 0.3 mm 6 mps 727 mmHg 39%
    12:00 +30°C° 0 mm 5 mps 726 mmHg 37%
    13:00 +32°C° 0 mm 5 mps 725 mmHg 36%
    14:00 +33°C° 0 mm 5 mps 725 mmHg 34%
    15:00 +32°C° 0 mm 4 mps 724 mmHg 37%
    16:00 +30°C° 0 mm 4 mps 724 mmHg 39%
    17:00 +30°C° 0 mm 4 mps 723 mmHg 41%
    18:00 +28°C° 0 mm 3 mps 723 mmHg 47%
    19:00 +26°C° 0 mm 3 mps 723 mmHg 53%
    20:00 +24°C° 0 mm 2 mps 723 mmHg 59%
    21:00 +23°C° 0 mm 2 mps 723 mmHg 62%
    22:00 +21°C° 0 mm 2 mps 723 mmHg 65%
    23:00 +21°C° 0 mm 1 mps 724 mmHg 68%

    Day after tomorrow, 20 October, Sunday

    Time Temperature Precipitation Wind Pressure Humidity
    00:00 +21°C° 0 mm 1 mps 723 mmHg 67%
    01:00 +21°C° 0 mm 1 mps 723 mmHg 66%
    02:00 +21°C° 0 mm 1 mps 722 mmHg 66%
    03:00 +21°C° 0 mm 1 mps 722 mmHg 66%
    04:00 +21°C° 0 mm 1 mps 722 mmHg 66%
    05:00 +20°C° 0 mm 1 mps 722 mmHg 66%
    06:00 +22°C° 0 mm 1 mps 722 mmHg 60%
    07:00 +24°C° 0 mm 1 mps 723 mmHg 53%
    08:00 +27°C° 0 mm 1 mps 723 mmHg 47%
    09:00 +29°C° 0 mm 2 mps 723 mmHg 43%
    10:00 +31°C° 0 mm 2 mps 722 mmHg 39%
    11:00 +34°C° 0 mm 3 mps 722 mmHg 34%
    12:00 +35°C° 0 mm 4 mps 721 mmHg 32%
    13:00 +36°C° 0 mm 5 mps 720 mmHg 31%
    14:00 +38°C° 0 mm 6 mps 719 mmHg 29%
    15:00 +38°C° 0 mm 6 mps 719 mmHg 30%
    16:00 +36°C° 0 mm 6 mps 718 mmHg 32%
    17:00 +36°C° 0 mm 5 mps 718 mmHg 34%
    18:00 +34°C° 0 mm 5 mps 718 mmHg 39%
    19:00 +32°C° 0 mm 4 mps 719 mmHg 44%
    20:00 +29°C° 0 mm 3 mps 719 mmHg 49%
    21:00 +29°C° 0 mm 3 mps 720 mmHg 51%
    22:00 +28°C° 0 mm 2 mps 720 mmHg 53%
    23:00 +28°C° 0 mm 2 mps 721 mmHg 54%

    21 October, Monday

    Time Temperature Precipitation Wind Pressure Humidity
    00:00 +27°C° 0 mm 3 mps 721 mmHg 56%
    01:00 +27°C° 0 mm 3 mps 721 mmHg 57%
    02:00 +27°C° 0 mm 4 mps 721 mmHg 58%
    03:00 +26°C° 0.1 mm 4 mps 721 mmHg 57%
    04:00 +26°C° 0.1 mm 4 mps 722 mmHg 56%
    05:00 +25°C° 0.1 mm 4 mps 722 mmHg 56%
    06:00 +26°C° 0 mm 5 mps 723 mmHg 54%
    07:00 +26°C° 0 mm 5 mps 724 mmHg 52%
    08:00 +27°C° 0 mm 5 mps 724 mmHg 50%
    09:00 +28°C° 0 mm 6 mps 724 mmHg 46%
    10:00 +29°C° 0 mm 6 mps 724 mmHg 43%
    11:00 +30°C° 0 mm 6 mps 725 mmHg 39%
    12:00 +30°C° 0 mm 6 mps 724 mmHg 38%
    13:00 +30°C° 0 mm 6 mps 723 mmHg 37%
    14:00 +32°C° 0 mm 6 mps 722 mmHg 35%
    15:00 +30°C° 0 mm 5 mps 722 mmHg 36%
    16:00 +30°C° 0 mm 5 mps 721 mmHg 36%
    17:00 +30°C° 0 mm 4 mps 721 mmHg 36%
    18:00 +28°C° 0 mm 4 mps 721 mmHg 38%
    19:00 +27°C° 0 mm 3 mps 722 mmHg 39%
    20:00 +26°C° 0 mm 2 mps 722 mmHg 41%
    21:00 +26°C° 0 mm 3 mps 723 mmHg 39%
    22:00 +27°C° 0 mm 3 mps 723 mmHg 37%
    23:00 +27°C° 0 mm 4 mps 724 mmHg 35%

    22 October, Tuesday

    Time Temperature Precipitation Wind Pressure Humidity
    00:00 +26°C° 0 mm 4 mps 723 mmHg 35%
    01:00 +26°C° 0 mm 4 mps 723 mmHg 36%
    02:00 +26°C° 0 mm 4 mps 723 mmHg 36%
    03:00 +26°C° 0 mm 4 mps 723 mmHg 35%
    04:00 +26°C° 0 mm 4 mps 723 mmHg 34%
    05:00 +26°C° 0 mm 3 mps 723 mmHg 33%
    06:00 +26°C° 0 mm 4 mps 724 mmHg 31%
    07:00 +26°C° 0 mm 4 mps 724 mmHg 29%
    08:00 +27°C° 0 mm 5 mps 725 mmHg 27%
    09:00 +28°C° 0 mm 5 mps 724 mmHg 25%
    10:00 +30°C° 0 mm 5 mps 724 mmHg 22%
    11:00 +33°C° 0 mm 4 mps 724 mmHg 20%
    12:00 +34°C° 0 mm 4 mps 724 mmHg 19%
    13:00 +35°C° 0 mm 3 mps 723 mmHg 18%
    14:00 +36°C° 0 mm 3 mps 722 mmHg 17%
    15:00 +36°C° 0 mm 3 mps 722 mmHg 17%
    16:00 +35°C° 0 mm 3 mps 721 mmHg 18%
    17:00 +35°C° 0 mm 3 mps 721 mmHg 19%
    18:00 +31°C° 0 mm 2 mps 721 mmHg 25%
    19:00 +28°C° 0 mm 2 mps 721 mmHg 31%
    20:00 +25°C° 0 mm 2 mps 722 mmHg 37%
    21:00 +24°C° 0 mm 2 mps 722 mmHg 38%
    22:00 +23°C° 0 mm 1 mps 722 mmHg 40%
    23:00 +23°C° 0 mm 1 mps 722 mmHg 42%

    23 October, Wednesday

    Time Temperature Precipitation Wind Pressure Humidity
    00:00 +21°C° 0 mm 2 mps 722 mmHg 42%
    01:00 +21°C° 0 mm 2 mps 722 mmHg 41%
    02:00 +21°C° 0 mm 2 mps 721 mmHg 40%
    03:00 +20°C° 0 mm 2 mps 721 mmHg 40%
    04:00 +20°C° 0 mm 2 mps 722 mmHg 40%
    05:00 +20°C° 0 mm 2 mps 722 mmHg 39%
    06:00 +22°C° 0 mm 3 mps 723 mmHg 34%
    07:00 +26°C° 0 mm 3 mps 724 mmHg 30%
    08:00 +28°C° 0 mm 4 mps 724 mmHg 25%
    09:00 +30°C° 0 mm 4 mps 724 mmHg 23%
    10:00 +33°C° 0 mm 4 mps 724 mmHg 21%
    11:00 +35°C° 0 mm 3 mps 724 mmHg 18%
    12:00 +36°C° 0 mm 3 mps 723 mmHg 17%
    13:00 +37°C° 0 mm 3 mps 722 mmHg 17%
    14:00 +38°C° 0 mm 2 mps 721 mmHg 16%
    15:00 +38°C° 0 mm 2 mps 721 mmHg 17%
    16:00 +37°C° 0 mm 2 mps 720 mmHg 17%
    17:00 +36°C° 0 mm 2 mps 720 mmHg 18%
    18:00 +32°C° 0 mm 2 mps 720 mmHg 23%
    19:00 +29°C° 0 mm 1 mps 721 mmHg 28%
    20:00 +25°C° 0 mm 0 mps 721 mmHg 33%
    21:00 +26°C° 0 mm 1 mps 721 mmHg 34%
    22:00 +25°C° 0 mm 1 mps 722 mmHg 36%
    23:00 +24°C° 0 mm 1 mps 722 mmHg 37%
    Show more